Location: Brompton
(51.4000°N, 0.5333°E)
Time: 18:31:28
(UTC+00:00)

CRYOSAT 2 - Pass Details

Date: 11 May 2021
Orbit: 714 x 725 km, 92.0° (Epoch: 21 June)

Event Time Altitude Azimuth Distance (km) Brightness Sun altitude
Exits shadow 20:53:42 - 175° (S) 2,524 6.7 -10.1°
Reaches altitude 10° 20:54:29 10° 175° (S) 2,213 6.4 -10.2°
Maximum altitude 20:59:23 86° 264° (W) 734 4.4 -10.7°
Drops below altitude 10° 21:04:20 10° 355° (N) 2,225 7.8 -11.2°
Sets 21:06:38 0° 356° (N) 3,150 8.6 -11.4°
